Need To Know Information

  • Runway Strength
  • Airfield Lighting
  • Current Projects
  • Rental Cars

Why Delaware Coastal

  • Tax-Free Shopping
  • Convenient Fuel Stop
  • Beaches
  • Top Attractions

Current Weather Conditions

KGED 011854Z AUTO VRB03KT 5SM -RA BR BKN006 BKN010 OVC019 11/11 A3009 RMK AO2 CIG 004V009 SLP189 P0008 T01110111
Wind Speed Deg 0
Wind Speed Kt 3

Current Fuel Cost

JET-A W/FSII $3.99/gal.
AVGAS $3.99/gal.
DE Location Map

Location.

Location.

Location.

  • Centrally located within driving distance of 4 major markets
  • Flight Time to: D.C. - 20 min. PHL - 22 min. NYC - 30 min.
  • Next to V-1, a busy North/South airway
  • The preferred airport for Delaware’s beaches

Facilities

  • Large corporate jet capability
  • Great pavement conditions (all under 10 years old)
  • $40 million in recent improvements
  • 5500 x 150 ft. main runway
  • 3109 x 75 ft. crosswind runway
  • Fuel & service
  • Rail access at the airport
  • Rental car access
Sussex Hangar

Hangar

Development

Opportunities

We have land available for hangar development!

Thank you for your submission.

Please correct your Name.

Please correct your Email.

Please correct your Subject.

Please correct your Message.